Погода в Гусеве

Россия / Калужская область     55°03′38″N   35°40′12″E
темп.,
°C
ветер,
м/с
пор.,
м/с
влажн.,
%
обл.,
%
осадки,
мм/ч
давл.,
гПа
погр.,
м
5 августа, чт
чт500:00+16в117331 0.0 101711
03:00+13вюв11895 0.1 101710
06:00+13юв2289100 0.0 101753
09:00+19ююв3567100 0.1 1016440
12:00+19ююз6879100 1.0 1016820
15:00+15вюв279699 2.8 1015266
18:00+17юв248577 0.1 1014410
21:00+15в369764 0.6 1013124
6 августа, пт
пт600:00+14в2598100 0.8 1012102
03:00+14юв259762 1.1 1011110
06:00+14ююв2699100 0.6 1011149
09:00+18ю3691100 0.6 1010385
12:00+19ююз3794100 1.2 1011518
15:00+18в2596100 2.1 1010245
18:00+21в4783100 0.0 1008622
21:00+18св3993100 0.3 1008316
7 августа, сб
сб700:00+16св4897100 0.9 1008327
03:00+15всв2599100 0.9 1007142
06:00+15вюв2397100 0.0 100776
09:00+20ю238995 0.3 1008196
12:00+26ю595789 0.0 10071386
15:00+26ю5958100 0.1 10071982
18:00+22ююз3686100 1.8 1007368
21:00+18ююз2298100 4.2 101042
8 августа, вс
вс800:00+16зюз2597100 0.1 1011113
03:00+13юз2396100 0.1 101350
06:00+13юз239699 0.0 101476
09:00+18зюз23780 0.0 1014401
12:00+23юз35504 0.0 10141429
15:00+25юз3546100 0.0 10142030
18:00+21зюз1270100 0.0 101540
21:00+17зсз11806 0.0 101611
9 августа, пн
пн900:00+16юз1184100 0.0 101711
03:00+15зюз1189100 0.0 101810
06:00+15зюз118612 0.0 101711
09:00+21ююз34595 0.0 1018400
12:00+26юз34446 0.0 10171071
15:00+28юз44390 0.0 10171420
18:00+26ююз35515 0.0 1016418
21:00+19ююв01645 0.0 101811